Flag for Japan Weather past 2 weeks in Fukushima, Japan

Now
35 °F

Chilly.


Feels Like: 27 °F
Forecast: 28 / 44 °F
Wind: 12 mph from Northwest

Location: Wakamatsu

Current Time: Feb 28, 2015 at 10:11:21 AM

Latest Report: Feb 28, 2015 at 9:00 AM


Visibility: 13 mi

Pressure: 30.31 "Hg

Humidity: 58%

Dew point: 22 °F

Location of FukushimaLocation

Historic Weather in Fukushima — Graph

°F

Fukushima temperature yesterday

Maximum temperature yesterday: 40 °F (at 3:00 PM)
Minimum temperature yesterday: 32 °F (at 11:00 PM)
Average temperature yesterday: 36 °F

Past Weeks' High & Low Weather Summary

 TemperatureHumidityPressure
High49 °F (Feb 22, 2:00 PM)100% (Feb 18, 8:00 PM)30.41 "Hg (Feb 18, 8:00 PM)
Low25 °F (Feb 17, 6:00 AM)47% (Feb 17, 11:00 AM)29.66 "Hg (Feb 13, 11:00 AM)
Average35 °F81%30.01 "Hg
* Reported Feb 13 8:00 AM — Feb 28 8:00 AM, Fukushima, Weather by CustomWeather, © 2015

Note: Actual official high and low records may vary slightly from our data, if they occured in-between our weather recording intervals... More about our weather records

Advertising

Fukushima weather history for previous 24 hours

 ConditionsComfort  
Time TempWeatherWind HumidityBarometerVisibility
8:00 AM
Sat, Feb 28
34 °FChilly.9 mph64%30.29 "Hg12 mi
7:00 AM33 °FChilly.7 mph66%30.28 "Hg12 mi
5:00 AM32 °FChilly.17 mph74%30.23 "Hg12 mi
4:00 AM31 °FLight snow. Overcast.10 mph76%30.20 "Hg12 mi
3:00 AM32 °FChilly.15 mph72%30.15 "Hg12 mi
2:00 AM32 °FChilly.13 mph74%30.13 "Hg12 mi
1:00 AM31 °FLight snow. Overcast.10 mph82%30.11 "Hg11 mi
12:00 AM31 °FLight snow. Overcast.16 mph89%30.09 "Hg2 mi
11:00 PM
Fri, Feb 27
32 °FFreezing rain. Overcast.17 mph91%30.07 "Hg1 mi
10:00 PM35 °FLight snow. Overcast.20 mph68%30.05 "Hg11 mi
9:00 PM35 °FLight snow. Overcast.16 mph69%30.01 "Hg12 mi
8:00 PM34 °FLight snow. Overcast.8 mph75%29.98 "Hg12 mi
7:00 PM35 °FLight snow. Overcast.15 mph69%29.96 "Hg12 mi
6:00 PM33 °FFreezing rain. Overcast.12 mph86%29.93 "Hg3 mi
5:00 PM34 °FFreezing rain. Cloudy.17 mph85%29.90 "Hg2 mi
4:00 PM35 °FFreezing rain. Cloudy.15 mph85%29.87 "Hg3 mi
3:00 PM40 °FQuite cool.18 mph57%29.82 "Hg12 mi
2:00 PM36 °FFreezing rain. Cloudy.15 mph81%29.82 "Hg12 mi
1:00 PM40 °FQuite cool.14 mph59%29.81 "Hg12 mi
10:00 AM40 °FFreezing rain. Cloudy.15 mph65%29.80 "Hg12 mi
Weather by CustomWeather, © 2015

See weather overviewHow to use our weather pages